Location: Pl�tzky
(52.0521°N, 11.8020°E)
Time: 04:36:50
(UTC+00:00)

Feng Yun 1-1 Rocket - Pass Details

Date: 22 November 2019
Orbit: 829 x 934 km, 99.2° (Epoch: 07 December)

Event Time Altitude Azimuth Distance (km) Brightness Sun altitude
Rises 15:47:49 0° 146° (SE) 3,430 7.3 -5.5°
Reaches altitude 10° 15:50:15 10° 142° (SE) 2,483 6.5 -5.8°
Maximum altitude 15:55:34 55° 67° (ENE) 1,013 4.3 -6.6°
Drops below altitude 10° 16:00:51 10° 351° (N) 2,455 6.5 -7.3°
Sets 16:03:14 0° 347° (NNW) 3,389 7.2 -7.6°
